"startDT [UTC]","vpos","CH4 [ppm]","stdev(CH4) [ppm]","CO2 [ppm]","stdev(CO2) [ppm]","H2O [ppm]","stdev(H2O)","p_LGR [torr]","T_LGR [C]","mt1_LGR [us]","mt2_LGR [us]","T_ECpre [C]","T_EC1 [C]","T_EC2 [C]","p_inlet [hPa]","p_in [hPa]","p_out [hPa]","T_inlet [C]","RH_inlet [%]","dwpt_inlet [C]","T_vent [C]","RH_vent [%]","dwpt_vent [C]","flow_vent [l min-1]","flow_inlet [l min-1]","dwpt_sample [C]","T_room [C]"
2012-06-28 00:00:00,0.0,1.8779,0.0010,397.02,0.30,28.2,22.4,138.07,31.39,24.65,36.45,0.95,7.99,-26.58,-61,540,-934,26.3,20.0,1.5,26.2,1.4,-30.5,5.73,2.39,-27.5,30.5
2012-06-28 00:01:00,0.0,1.8779,0.0010,397.25,0.33,36.8,26.9,138.07,31.38,24.65,36.45,0.95,8.38,-26.57,-60,540,-933,26.3,19.8,1.4,26.2,1.4,-30.6,5.73,2.39,-27.5,30.5
2012-06-28 00:02:00,0.0,1.8781,0.0008,397.22,0.27,26.3,21.3,138.07,31.38,24.65,36.45,0.95,8.76,-26.56,-60,540,-933,26.3,19.8,1.4,26.2,1.4,-30.6,5.73,2.38,-27.5,30.4
2012-06-28 00:03:00,0.0,1.8776,0.0010,397.15,0.35,36.6,29.3,138.07,31.38,24.65,36.46,0.96,9.13,-26.55,-60,540,-933,26.3,19.8,1.3,26.2,1.4,-30.5,5.73,2.39,-27.5,30.5
2012-06-28 00:04:00,0.0,1.8772,0.0008,397.41,0.29,37.7,24.5,138.07,31.37,24.65,36.45,0.96,9.49,-26.55,-61,540,-934,26.3,19.4,1.1,26.2,1.4,-30.5,5.73,2.38,-27.5,30.5
2012-06-28 00:05:00,0.0,1.8773,0.0009,397.32,0.28,28.0,26.9,138.07,31.37,24.65,36.45,0.96,9.84,-26.53,-60,540,-934,26.3,19.4,1.1,26.2,1.4,-30.6,5.73,2.39,-27.5,30.5
2012-06-28 00:06:00,0.0,1.8774,0.0009,397.34,0.31,23.6,22.4,138.07,31.37,24.65,36.45,0.96,10.18,-26.53,-60,540,-934,26.3,19.6,1.2,26.2,1.4,-30.5,5.73,2.39,-27.5,30.5
2012-06-28 00:07:00,0.0,1.8773,0.0009,397.29,0.30,30.7,25.9,138.07,31.36,24.65,36.45,0.92,10.52,-26.52,-60,540,-934,26.3,19.6,1.2,26.2,1.4,-30.5,5.73,2.39,-27.5,30.5
2012-06-28 00:08:00,0.0,1.8769,0.0009,397.34,0.28,30.6,24.7,138.07,31.36,24.65,36.45,0.94,10.83,-26.52,-60,540,-933,26.3,19.6,1.2,26.2,1.4,-30.5,5.73,2.39,-27.5,30.5
2012-06-28 00:09:00,0.0,1.8774,0.0010,397.31,0.28,31.1,24.7,138.07,31.36,24.64,36.45,0.92,11.15,-26.51,-60,540,-933,26.3,19.6,1.2,26.2,1.4,-30.5,5.73,2.39,-27.5,30.5
2012-06-28 00:10:00,0.0,1.8768,0.0008,397.34,0.28,31.3,26.6,138.07,31.36,24.65,36.45,0.93,11.45,-26.50,-60,540,-933,26.3,19.6,1.3,26.2,1.4,-30.5,5.73,2.40,-27.5,30.5
2012-06-28 00:11:00,0.0,1.8768,0.0008,397.38,0.30,24.7,22.7,138.07,31.36,24.65,36.45,0.92,11.74,-26.49,-60,540,-934,26.3,19.4,1.1,26.2,1.4,-30.5,5.73,2.40,-27.5,30.5
2012-06-28 00:12:00,0.0,1.8764,0.0011,397.24,0.26,35.8,25.8,138.07,31.36,24.65,36.46,0.93,12.02,-26.49,-60,540,-934,26.3,19.6,1.2,26.2,1.4,-30.5,5.73,2.39,-27.5,30.4
2012-06-28 00:13:00,0.0,1.8766,0.0010,397.21,0.29,27.5,23.4,138.07,31.36,24.65,36.46,0.92,12.29,-26.47,-60,540,-934,26.3,19.5,1.1,26.2,1.4,-30.5,5.73,2.39,-27.5,30.4
2012-06-28 00:14:00,0.0,1.8768,0.0008,397.15,0.33,27.3,26.1,138.07,31.35,24.65,36.45,0.94,12.55,-26.47,-60,540,-933,26.3,19.6,1.2,26.2,1.4,-30.5,5.73,2.39,-27.5,30.5
2012-06-28 00:15:00,0.0,1.8764,0.0010,397.15,0.26,20.5,20.9,138.07,31.35,24.65,36.45,0.95,12.80,-26.47,-60,540,-933,26.3,19.8,1.4,26.2,1.4,-30.5,5.73,2.39,-27.5,30.5
2012-06-28 00:16:00,0.0,1.8765,0.0010,397.41,0.28,30.1,23.9,138.07,31.35,24.65,36.45,0.92,13.04,-26.46,-60,540,-934,26.3,19.6,1.3,26.2,1.4,-30.5,5.73,2.39,-27.5,30.5
2012-06-28 00:17:00,0.0,1.8762,0.0010,397.26,0.36,31.4,24.0,138.07,31.35,24.65,36.45,0.94,13.27,-26.45,-60,540,-934,26.3,19.6,1.2,26.2,1.4,-30.5,5.73,2.39,-27.5,30.5
2012-06-28 00:18:00,0.0,1.8763,0.0009,397.19,0.26,31.1,24.0,138.07,31.35,24.65,36.45,0.92,13.49,-26.44,-60,540,-934,26.2,19.7,1.3,26.2,1.4,-30.5,5.73,2.39,-27.5,30.5
2012-06-28 00:19:00,0.0,1.8764,0.0010,397.29,0.31,32.7,25.9,138.07,31.34,24.65,36.45,0.94,13.69,-26.44,-60,540,-933,26.3,19.6,1.2,26.2,1.4,-30.5,5.73,2.39,-27.5,30.4
2012-06-28 00:20:00,0.0,1.8766,0.0010,397.17,0.26,30.8,27.4,138.07,31.34,24.65,36.45,0.94,13.90,-26.44,-60,540,-933,26.3,19.7,1.3,26.2,1.4,-30.5,5.73,2.38,-27.5,30.4
2012-06-28 00:21:00,0.0,1.8763,0.0008,397.25,0.29,26.4,27.1,138.07,31.34,24.65,36.45,0.95,14.09,-26.43,-60,540,-934,26.2,19.6,1.2,26.2,1.4,-30.5,5.73,2.39,-27.6,30.4
2012-06-28 00:22:00,0.0,1.8765,0.0008,397.21,0.23,33.3,29.9,138.07,31.33,24.64,36.45,0.94,14.27,-26.43,-60,540,-934,26.3,19.7,1.3,26.2,1.4,-30.5,5.73,2.39,-27.5,30.5
2012-06-28 00:23:00,0.0,1.8762,0.0008,397.37,0.29,29.7,24.2,138.07,31.33,24.65,36.45,0.95,14.45,-26.42,-60,540,-934,26.3,19.6,1.2,26.2,1.4,-30.5,5.73,2.39,-27.5,30.4
2012-06-28 00:24:00,0.0,1.8760,0.0009,397.39,0.35,29.4,28.4,138.07,31.33,24.65,36.45,0.94,14.61,-26.41,-60,540,-934,26.3,19.4,1.1,26.1,1.4,-30.6,5.73,2.39,-27.5,30.4
2012-06-28 00:25:00,0.0,1.8760,0.0010,397.38,0.28,30.5,28.2,138.07,31.33,24.65,36.44,0.95,14.77,-26.41,-60,540,-933,26.2,19.5,1.1,26.1,1.4,-30.5,5.73,2.40,-27.6,30.4
2012-06-28 00:26:00,0.0,1.8764,0.0009,397.35,0.25,22.2,19.7,138.07,31.32,24.65,36.45,0.92,14.93,-26.41,-60,540,-934,26.3,19.6,1.2,26.1,1.4,-30.5,5.73,2.39,-27.6,30.4
2012-06-28 00:27:00,0.0,1.8761,0.0008,397.22,0.25,31.5,25.2,138.07,31.32,24.65,36.45,0.93,15.08,-26.40,-60,540,-934,26.2,19.7,1.3,26.1,1.4,-30.6,5.73,2.40,-27.6,30.4
2012-06-28 00:28:00,0.0,1.8761,0.0009,397.11,0.29,27.7,24.0,138.07,31.32,24.65,36.46,0.94,15.22,-26.40,-60,540,-934,26.2,19.9,1.4,26.2,1.4,-30.5,5.73,2.39,-27.6,30.4
2012-06-28 00:29:00,0.0,1.8761,0.0010,397.40,0.28,31.5,25.6,138.07,31.32,24.65,36.45,0.94,15.36,-26.40,-60,540,-934,26.2,19.7,1.3,26.2,1.4,-30.6,5.73,2.40,-27.6,30.4
2012-06-28 00:30:00,0.0,1.8762,0.0010,397.41,0.29,29.2,26.3,138.07,31.31,24.65,36.45,0.94,15.49,-26.39,-60,540,-933,26.2,19.5,1.1,26.1,1.4,-30.5,5.73,2.39,-27.6,30.4
2012-06-28 00:31:00,0.0,1.8766,0.0009,397.29,0.27,29.6,24.2,138.07,31.31,24.64,36.46,0.94,15.61,-26.38,-60,540,-933,26.2,19.5,1.1,26.2,1.4,-30.5,5.73,2.39,-27.6,30.3
2012-06-28 00:32:00,0.0,1.8762,0.0008,397.36,0.26,24.9,21.3,138.07,31.31,24.65,36.45,0.95,15.73,-26.39,-60,540,-934,26.2,19.6,1.1,26.1,1.4,-30.6,5.73,2.38,-27.6,30.4
2012-06-28 00:33:00,0.0,1.8765,0.0009,397.42,0.28,26.5,24.2,138.07,31.31,24.65,36.45,0.95,15.85,-26.38,-60,540,-934,26.2,19.5,1.1,26.1,1.4,-30.5,5.73,2.39,-27.6,30.4
2012-06-28 00:34:00,0.0,1.8763,0.0010,397.35,0.29,20.8,21.4,138.07,31.30,24.65,36.45,0.95,15.95,-26.38,-60,540,-934,26.2,19.7,1.3,26.1,1.4,-30.5,5.73,2.39,-27.6,30.4
2012-06-28 00:35:00,0.0,1.8771,0.0010,397.32,0.29,21.5,23.5,138.07,31.30,24.65,36.46,0.95,16.06,-26.37,-60,540,-934,26.2,19.7,1.2,26.1,1.4,-30.5,5.73,2.39,-27.6,30.4
2012-06-28 00:36:00,0.0,1.8769,0.0010,397.34,0.27,25.9,24.4,138.07,31.30,24.65,36.45,0.95,16.16,-26.37,-60,540,-933,26.2,19.7,1.2,26.1,1.4,-30.6,5.73,2.38,-27.6,30.4
2012-06-28 00:37:00,0.0,1.8765,0.0009,397.43,0.29,21.6,22.9,138.07,31.30,24.65,36.46,0.95,16.25,-26.37,-60,540,-933,26.2,19.5,1.1,26.1,1.4,-30.5,5.73,2.39,-27.6,30.4
2012-06-28 00:38:00,0.0,1.8767,0.0008,397.37,0.30,27.7,27.1,138.07,31.30,24.65,36.46,0.95,16.34,-26.36,-60,540,-934,26.2,19.4,1.1,26.1,1.4,-30.6,5.73,2.39,-27.6,30.4
2012-06-28 00:39:00,0.0,1.8766,0.0009,397.31,0.28,28.8,27.4,138.07,31.30,24.65,36.45,0.94,16.43,-26.36,-60,540,-934,26.2,19.6,1.2,26.2,1.4,-30.5,5.73,2.40,-27.6,30.4
2012-06-28 00:40:00,0.0,1.8767,0.0010,397.09,0.24,26.4,23.9,138.07,31.29,24.64,36.46,0.95,16.51,-26.35,-60,540,-934,26.2,19.8,1.3,26.2,1.4,-30.5,5.73,2.39,-27.6,30.4
2012-06-28 00:41:00,0.0,1.8766,0.0010,397.25,0.24,25.8,25.0,138.07,31.29,24.65,36.45,0.95,16.60,-26.35,-60,540,-934,26.2,19.8,1.3,26.1,1.4,-30.5,5.73,2.40,-27.6,30.4
2012-06-28 00:42:00,0.0,1.8763,0.0008,397.33,0.29,27.2,23.8,138.07,31.29,24.65,36.46,0.95,16.67,-26.35,-60,540,-933,26.2,19.7,1.3,26.1,1.4,-30.6,5.73,2.40,-27.6,30.4
2012-06-28 00:43:00,0.0,1.8765,0.0008,397.38,0.24,26.6,23.2,138.07,31.28,24.65,36.45,0.95,16.75,-26.35,-60,540,-934,26.2,19.6,1.2,26.1,1.4,-30.6,5.73,2.39,-27.6,30.3
2012-06-28 00:44:00,0.0,1.8767,0.0009,397.33,0.24,19.8,21.3,138.07,31.28,24.65,36.45,0.95,16.82,-26.34,-60,540,-934,26.2,19.8,1.3,26.1,1.4,-30.6,5.73,2.39,-27.6,30.4
2012-06-28 00:45:00,0.0,1.8769,0.0010,397.31,0.30,25.2,21.6,138.07,31.28,24.65,36.45,0.94,16.88,-26.34,-60,539,-934,26.2,19.7,1.2,26.1,1.4,-30.5,5.73,2.39,-27.6,30.4
2012-06-28 00:46:00,0.0,1.8769,0.0007,397.31,0.31,17.8,23.3,138.07,31.28,24.65,36.45,0.96,16.94,-26.34,-60,539,-934,26.2,19.6,1.2,26.1,1.4,-30.5,5.73,2.39,-27.6,30.4
2012-06-28 00:47:00,0.0,1.8772,0.0008,397.27,0.29,24.4,18.2,138.07,31.28,24.65,36.45,0.94,17.01,-26.33,-60,539,-933,26.2,19.7,1.2,26.1,1.4,-30.5,5.73,2.39,-27.6,30.4
2012-06-28 00:48:00,0.0,1.8770,0.0012,397.35,0.30,19.0,19.4,138.07,31.27,24.65,36.45,0.96,17.06,-26.33,-60,539,-933,26.2,19.7,1.2,26.1,1.4,-30.5,5.73,2.39,-27.6,30.4
2012-06-28 00:49:00,0.0,1.8770,0.0008,397.30,0.28,21.8,21.9,138.07,31.27,24.65,36.45,0.92,17.12,-26.33,-60,539,-934,26.2,19.7,1.2,26.1,1.4,-30.5,5.73,2.39,-27.6,30.4
2012-06-28 00:50:00,0.0,1.8773,0.0012,397.38,0.30,31.5,25.7,138.07,31.27,24.64,36.45,0.95,17.18,-26.33,-60,540,-934,26.2,19.6,1.2,26.1,1.4,-30.5,5.73,2.39,-27.6,30.4
2012-06-28 00:51:00,0.0,1.8769,0.0009,397.43,0.27,26.1,23.3,138.07,31.27,24.65,36.45,0.95,17.23,-26.33,-60,540,-934,26.2,19.7,1.2,26.1,1.4,-30.5,5.73,2.39,-27.7,30.4
2012-06-28 00:52:00,0.0,1.8766,0.0011,397.28,0.30,22.7,24.6,138.07,31.27,24.65,36.45,0.95,17.28,-26.33,-60,539,-934,26.2,19.7,1.2,26.1,1.4,-30.6,5.73,2.39,-27.6,30.4
2012-06-28 00:53:00,0.0,1.8769,0.0009,397.45,0.27,24.0,20.1,138.07,31.27,24.65,36.44,0.94,17.32,-26.32,-60,540,-933,26.2,19.6,1.2,26.1,1.4,-30.5,5.73,2.39,-27.6,30.4
2012-06-28 00:54:00,0.0,1.8772,0.0011,397.45,0.32,27.4,23.5,138.07,31.26,24.65,36.45,0.95,17.36,-26.32,-60,539,-933,26.2,19.6,1.1,26.1,1.4,-30.6,5.73,2.40,-27.6,30.4
2012-06-28 00:55:00,0.0,1.8771,0.0008,397.40,0.30,26.9,24.3,138.07,31.26,24.65,36.45,0.95,17.41,-26.32,-60,539,-934,26.2,19.7,1.2,26.1,1.4,-30.5,5.73,2.40,-27.7,30.3
2012-06-28 00:56:00,0.0,1.8769,0.0008,397.22,0.26,16.9,22.1,138.07,31.26,24.65,36.45,0.94,17.45,-26.32,-60,539,-934,26.2,19.8,1.3,26.1,1.4,-30.6,5.73,2.40,-27.7,30.3
2012-06-28 00:57:00,0.0,1.8771,0.0009,397.20,0.29,23.2,23.2,138.07,31.26,24.65,36.45,0.94,17.49,-26.32,-60,539,-934,26.1,20.0,1.4,26.1,1.4,-30.6,5.73,2.39,-27.7,30.4
2012-06-28 00:58:00,0.0,1.8769,0.0010,397.30,0.32,24.6,27.5,138.07,31.25,24.65,36.46,0.93,17.53,-26.31,-60,539,-934,26.2,19.8,1.3,26.1,1.4,-30.6,5.73,2.39,-27.7,30.4
2012-06-28 00:59:00,0.0,1.8766,0.0009,397.47,0.26,23.0,26.9,138.07,31.25,24.65,36.45,0.94,17.56,-26.32,-60,539,-933,26.2,19.5,1.1,26.1,1.4,-30.6,5.73,2.39,-27.7,30.4
2012-06-28 01:00:00,0.0,1.8763,0.0009,397.47,0.27,19.1,22.4,138.07,31.25,24.65,36.45,0.93,17.60,-26.31,-60,540,-934,26.2,19.4,1.0,26.1,1.4,-30.5,5.73,2.39,-27.7,30.4
2012-06-28 01:01:00,0.0,1.8763,0.0009,397.25,0.28,24.3,22.0,138.07,31.25,24.65,36.46,0.94,17.63,-26.31,-60,539,-934,26.1,19.5,1.1,26.1,1.4,-30.5,5.73,2.38,-27.7,30.3
2012-06-28 01:02:00,0.0,1.8763,0.0009,397.34,0.26,20.2,20.1,138.07,31.24,24.65,36.45,0.93,17.66,-26.31,-60,539,-934,26.1,19.6,1.1,26.1,1.4,-30.6,5.73,2.39,-27.7,30.3
2012-06-28 01:03:00,0.0,1.8766,0.0009,397.40,0.36,16.9,20.6,138.07,31.24,24.65,36.45,0.94,17.69,-26.31,-60,539,-933,26.2,19.7,1.2,26.1,1.4,-30.6,5.73,2.39,-27.7,30.3
2012-06-28 01:04:00,0.0,1.8766,0.0007,397.27,0.31,19.9,23.7,138.07,31.24,24.65,36.46,0.95,17.72,-26.30,-60,540,-934,26.1,19.5,1.1,26.1,1.4,-30.5,5.73,2.39,-27.7,30.3
2012-06-28 01:05:00,0.0,1.8766,0.0010,397.35,0.35,18.7,20.1,138.07,31.24,24.65,36.45,0.94,17.74,-26.31,-60,539,-934,26.1,19.5,1.1,26.1,1.4,-30.6,5.73,2.39,-27.7,30.3
2012-06-28 01:06:00,0.0,1.8766,0.0009,397.24,0.32,18.5,22.7,138.07,31.23,24.65,36.45,0.93,17.77,-26.30,-60,539,-934,26.1,19.5,1.1,26.1,1.4,-30.6,5.73,2.39,-27.7,30.3
2012-06-28 01:07:00,0.0,1.8771,0.0010,397.20,0.29,17.5,21.3,138.07,31.23,24.64,36.45,0.92,17.79,-26.30,-60,539,-934,26.1,19.7,1.2,26.1,1.4,-30.5,5.73,2.39,-27.7,30.3
2012-06-28 01:08:00,0.0,1.8764,0.0008,397.41,0.27,19.7,20.6,138.07,31.23,24.65,36.45,0.94,17.82,-26.30,-60,540,-933,26.1,19.4,1.0,26.1,1.4,-30.6,5.73,2.40,-27.7,30.4
2012-06-28 01:09:00,0.0,1.8766,0.0008,397.33,0.31,16.9,23.4,138.07,31.23,24.65,36.45,0.96,17.84,-26.30,-60,539,-934,26.1,19.6,1.1,26.1,1.4,-30.6,5.73,2.40,-27.7,30.4
2012-06-28 01:10:00,0.0,1.8763,0.0009,397.37,0.25,22.9,26.0,138.07,31.23,24.65,36.45,0.96,17.86,-26.30,-60,539,-934,26.1,19.3,0.9,26.1,1.4,-30.6,5.73,2.40,-27.7,30.3
2012-06-28 01:11:00,0.0,1.8766,0.0008,397.02,0.28,18.6,21.4,138.07,31.23,24.64,36.46,0.93,17.88,-26.31,-60,540,-934,26.1,19.6,1.1,26.1,1.4,-30.6,5.73,2.40,-27.7,30.3
2012-06-28 01:12:00,0.0,1.8765,0.0008,397.19,0.30,16.1,21.7,138.07,31.22,24.65,36.45,0.96,17.90,-26.30,-60,539,-933,26.1,19.6,1.1,26.1,1.4,-30.6,5.73,2.39,-27.7,30.3
2012-06-28 01:13:00,0.0,1.8766,0.0009,397.18,0.31,20.1,21.7,138.07,31.22,24.65,36.45,0.94,17.92,-26.31,-60,539,-933,26.1,19.5,1.0,26.1,1.4,-30.5,5.73,2.40,-27.7,30.3
2012-06-28 01:14:00,0.0,1.8764,0.0008,397.26,0.28,18.8,20.2,138.07,31.22,24.65,36.45,0.92,17.94,-26.31,-60,539,-934,26.1,19.5,1.1,26.1,1.4,-30.6,5.73,2.39,-27.7,30.3
2012-06-28 01:15:00,0.0,1.8761,0.0009,397.21,0.26,15.0,18.7,138.07,31.22,24.65,36.45,0.95,17.95,-26.31,-60,539,-934,26.1,19.5,1.1,26.1,1.4,-30.5,5.73,2.39,-27.7,30.3
2012-06-28 01:16:00,0.0,1.8761,0.0009,397.24,0.27,21.6,24.4,138.07,31.21,24.65,36.45,0.93,17.97,-26.31,-60,539,-934,26.1,19.6,1.1,26.1,1.4,-30.6,5.73,2.39,-27.7,30.3
2012-06-28 01:17:00,0.0,1.8761,0.0008,397.32,0.28,25.8,25.7,138.07,31.21,24.65,36.45,0.94,17.99,-26.31,-60,539,-933,26.1,19.5,1.1,26.0,1.4,-30.6,5.73,2.39,-27.7,30.3
2012-06-28 01:18:00,0.0,1.8759,0.0009,397.52,0.28,18.6,17.6,138.07,31.21,24.65,36.44,0.95,18.00,-26.31,-60,539,-934,26.1,19.2,0.9,26.0,1.4,-30.6,5.73,2.39,-27.7,30.3
2012-06-28 01:19:00,0.0,1.8766,0.0009,397.32,0.25,13.6,19.3,138.07,31.20,24.64,36.45,0.93,18.01,-26.31,-60,539,-934,26.1,19.4,1.0,26.0,1.4,-30.6,5.73,2.39,-27.7,30.3
2012-06-28 01:20:00,0.0,1.8760,0.0009,397.13,0.25,18.1,20.2,138.07,31.20,24.65,36.46,0.94,18.03,-26.31,-60,539,-934,26.1,19.5,1.0,26.0,1.4,-30.6,5.73,2.39,-27.7,30.3
2012-06-28 01:21:00,0.0,1.8763,0.0008,397.36,0.34,23.9,23.4,138.07,31.20,24.65,36.45,0.95,18.05,-26.30,-60,539,-934,26.1,19.5,1.0,26.1,1.4,-30.6,5.73,2.39,-27.7,30.3
2012-06-28 01:22:00,0.0,1.8762,0.0009,397.14,0.31,19.9,21.4,138.07,31.19,24.65,36.45,0.95,18.06,-26.31,-60,539,-933,26.1,19.5,1.0,26.0,1.4,-30.6,5.73,2.40,-27.7,30.2
2012-06-28 01:23:00,0.0,1.8760,0.0009,397.11,0.29,21.1,23.9,138.07,31.19,24.65,36.45,0.95,18.07,-26.31,-60,539,-934,26.1,19.6,1.1,26.0,1.4,-30.6,5.73,2.39,-27.7,30.3
2012-06-28 01:24:00,0.0,1.8760,0.0009,397.35,0.24,21.5,22.9,138.07,31.19,24.65,36.45,1.12,17.60,-26.31,-60,539,-934,26.1,19.4,0.9,26.0,1.4,-30.6,5.73,2.40,-27.7,30.3
2012-06-28 01:25:00,0.0,1.8763,0.0010,397.29,0.27,25.3,24.6,138.07,31.19,24.65,36.45,1.12,15.72,-26.31,-60,539,-934,26.1,19.3,0.9,26.0,1.4,-30.6,5.73,2.40,-27.8,30.3
2012-06-28 01:26:00,0.0,1.8758,0.0008,397.21,0.27,19.6,24.1,138.07,31.19,24.65,36.46,0.97,13.43,-26.32,-60,539,-934,26.1,19.5,1.0,26.0,1.4,-30.5,5.73,2.40,-27.7,30.2
2012-06-28 01:27:00,0.0,1.8758,0.0008,397.34,0.32,20.8,21.2,138.07,31.19,24.65,36.46,1.07,11.10,-26.30,-60,539,-934,26.1,19.3,0.8,26.0,1.4,-30.6,5.73,2.39,-27.8,30.3
2012-06-28 01:28:00,0.0,1.8762,0.0007,397.44,0.29,22.5,22.6,138.07,31.19,24.65,36.45,1.07,8.83,-26.30,-60,539,-934,26.1,19.2,0.8,26.0,1.4,-30.6,5.73,2.40,-27.8,30.2
2012-06-28 01:29:00,0.0,1.8761,0.0010,397.33,0.30,14.7,18.5,138.07,31.19,24.65,36.45,0.97,6.65,-26.28,-60,539,-934,26.1,19.4,0.9,26.0,1.4,-30.6,5.73,2.40,-27.8,30.2
2012-06-28 01:30:00,0.0,1.8762,0.0009,397.25,0.30,22.4,23.6,138.07,31.18,24.65,36.45,1.07,4.58,-26.27,-60,539,-934,26.1,19.5,1.0,26.0,1.4,-30.6,5.73,2.40,-27.8,30.3
2012-06-28 01:31:00,0.0,1.8765,0.0009,397.08,0.27,20.9,23.5,138.07,31.18,24.65,36.45,1.09,2.59,-26.25,-60,539,-934,26.1,19.8,1.2,26.0,1.4,-30.6,5.73,2.39,-27.8,30.2
2012-06-28 01:32:00,0.0,1.8771,0.0011,397.22,0.29,18.8,21.1,138.07,31.18,24.65,36.45,0.98,0.72,-26.23,-60,539,-934,26.1,19.7,1.1,26.0,1.4,-30.5,5.73,2.39,-27.8,30.2
2012-06-28 01:33:00,0.0,1.8771,0.0010,397.39,0.32,17.9,19.5,138.07,31.18,24.65,36.45,1.06,-1.06,-26.22,-60,539,-934,26.1,19.4,0.9,26.0,1.4,-30.4,5.73,2.40,-27.8,30.2
2012-06-28 01:34:00,0.0,1.8771,0.0010,397.41,0.24,20.6,21.8,138.07,31.18,24.65,36.45,1.09,-2.71,-26.20,-60,539,-934,26.1,19.2,0.8,26.0,1.4,-30.4,5.73,2.39,-27.8,30.2
2012-06-28 01:35:00,0.0,1.8770,0.0007,397.06,0.31,18.6,19.7,138.07,31.18,24.65,36.45,0.98,-4.20,-26.19,-60,539,-933,26.1,19.6,1.0,26.0,1.4,-30.4,5.73,2.40,-27.8,30.1
2012-06-28 01:36:00,0.0,1.8768,0.0008,397.18,0.30,17.0,22.2,138.07,31.17,24.65,36.45,1.03,-5.67,-26.17,-60,539,-934,26.1,19.8,1.2,26.0,1.4,-30.4,5.73,2.39,-27.8,30.1
2012-06-28 01:37:00,0.0,1.8764,0.0010,397.34,0.26,21.8,22.8,138.07,31.17,24.65,36.45,1.09,-6.54,-26.17,-60,539,-934,26.0,19.5,1.0,26.0,1.4,-30.4,5.73,2.39,-27.8,30.1
2012-06-28 01:38:00,0.0,1.8765,0.0009,397.22,0.30,17.5,20.1,138.07,31.16,24.65,36.45,1.01,-8.00,-26.15,-60,539,-934,26.0,19.7,1.1,26.0,1.4,-30.5,5.73,2.39,-27.8,30.1
2012-06-28 01:39:00,0.0,1.8767,0.0010,397.02,0.25,17.3,19.6,138.07,31.16,24.65,36.46,0.99,-9.25,-26.15,-60,539,-934,26.0,19.8,1.2,26.0,1.4,-30.4,5.73,2.40,-27.8,30.1
2012-06-28 01:40:00,0.0,1.8767,0.0009,397.22,0.30,13.1,20.2,138.07,31.16,24.65,36.45,1.07,-10.39,-26.15,-60,539,-934,26.0,19.5,1.0,26.0,1.5,-30.4,5.73,2.39,-27.8,30.1
2012-06-28 01:41:00,0.0,1.8768,0.0010,397.27,0.30,13.7,19.2,138.08,31.15,24.64,36.45,1.06,-11.48,-26.14,-60,539,-934,26.0,19.3,0.8,26.0,1.4,-30.4,5.73,2.39,-27.8,30.1
2012-06-28 01:42:00,0.0,1.8763,0.0008,397.28,0.27,17.3,18.0,138.08,31.15,24.65,36.46,0.97,-12.49,-26.14,-60,539,-934,26.0,19.4,0.9,25.9,1.4,-30.5,5.73,2.40,-27.8,30.1
2012-06-28 01:43:00,0.0,1.8766,0.0008,397.36,0.29,16.0,21.2,138.07,31.14,24.65,36.45,1.01,-13.44,-26.14,-60,539,-934,26.0,19.4,0.8,26.0,1.5,-30.4,5.73,2.40,-27.8,30.2
2012-06-28 01:44:00,0.0,1.8764,0.0011,397.29,0.35,18.1,20.4,138.07,31.14,24.65,36.45,1.09,-14.32,-26.13,-60,539,-934,26.0,19.4,0.9,25.9,1.4,-30.4,5.73,2.39,-27.8,30.1
2012-06-28 01:45:00,0.0,1.8766,0.0010,397.12,0.29,20.7,25.1,138.08,31.13,24.65,36.46,1.02,-15.16,-26.14,-60,539,-934,26.0,19.4,0.9,26.0,1.4,-30.5,5.73,2.39,-27.8,30.2
2012-06-28 01:46:00,0.0,1.8770,0.0011,397.09,0.33,14.2,16.6,138.07,31.13,24.65,36.46,0.97,-15.95,-26.15,-60,539,-934,26.0,19.7,1.1,26.0,1.4,-30.5,5.73,2.40,-27.8,30.2
2012-06-28 01:47:00,0.0,1.8774,0.0008,397.09,0.30,17.9,19.2,138.07,31.13,24.65,36.44,1.04,-16.71,-26.15,-60,539,-933,26.0,19.7,1.1,26.0,1.4,-30.4,5.73,2.39,-27.8,30.1
2012-06-28 01:48:00,0.0,1.8772,0.0009,397.09,0.30,15.7,22.6,138.07,31.13,24.65,36.46,1.07,-17.44,-26.16,-60,539,-934,26.0,19.8,1.1,26.0,1.4,-30.4,5.73,2.39,-27.8,30.1
2012-06-28 01:49:00,0.0,1.8774,0.0009,397.23,0.31,18.7,22.2,138.07,31.13,24.65,36.46,0.99,-18.12,-26.17,-60,539,-934,26.0,19.7,1.1,25.9,1.4,-30.4,5.73,2.40,-27.8,30.1
2012-06-28 01:50:00,0.0,1.8773,0.0009,397.26,0.31,23.4,23.2,138.07,31.13,24.65,36.45,0.98,-18.76,-26.18,-60,539,-934,26.0,19.7,1.1,25.9,1.4,-30.5,5.73,2.39,-27.9,30.1
2012-06-28 01:51:00,0.0,1.8774,0.0007,397.28,0.26,14.3,15.9,138.08,31.13,24.65,36.45,1.04,-19.40,-26.18,-60,539,-934,26.0,19.6,1.0,25.9,1.4,-30.5,5.73,2.39,-27.9,30.0
2012-06-28 01:52:00,0.0,1.8776,0.0009,397.08,0.25,18.8,23.9,138.07,31.12,24.65,36.45,1.07,-20.00,-26.19,-60,539,-934,26.0,19.8,1.1,25.9,1.4,-30.5,5.73,2.40,-27.9,30.0
2012-06-28 01:53:00,0.0,1.8770,0.0009,397.25,0.31,11.8,17.9,138.08,31.12,24.65,36.45,0.98,-20.57,-26.20,-60,539,-934,26.0,19.6,1.0,25.9,1.4,-30.6,5.73,2.40,-27.9,30.0
2012-06-28 01:54:00,0.0,1.8770,0.0009,397.25,0.28,19.9,23.6,138.07,31.12,24.65,36.45,0.97,-21.10,-26.21,-60,539,-934,26.0,19.5,1.0,25.9,1.4,-30.6,5.73,2.40,-27.9,30.0
2012-06-28 01:55:00,0.0,1.8772,0.0009,397.36,0.26,14.5,20.1,138.08,31.11,24.65,36.45,1.03,-21.59,-26.22,-60,539,-934,26.0,19.6,1.0,25.9,1.4,-30.7,5.73,2.39,-27.9,30.0
2012-06-28 01:56:00,0.0,1.8771,0.0007,397.38,0.30,13.3,18.6,138.07,31.11,24.65,36.45,1.06,-22.06,-26.23,-60,539,-934,26.0,19.5,0.9,25.9,1.4,-30.7,5.73,2.40,-27.9,30.0
2012-06-28 01:57:00,0.0,1.8774,0.0009,397.23,0.25,17.9,25.8,138.07,31.11,24.65,36.45,1.01,-22.49,-26.23,-60,539,-933,26.0,19.4,0.9,25.9,1.4,-30.7,5.73,2.40,-27.9,30.1
2012-06-28 01:58:00,0.0,1.8774,0.0008,397.05,0.29,19.7,23.0,138.08,31.10,24.64,36.46,0.95,-22.90,-26.25,-60,539,-934,26.0,19.6,1.0,25.9,1.4,-30.7,5.73,2.40,-27.9,30.0
2012-06-28 01:59:00,0.0,1.8778,0.0009,397.00,0.27,14.3,16.5,138.08,31.10,24.65,36.46,1.00,-23.29,-26.26,-60,539,-934,26.0,19.8,1.2,25.9,1.4,-30.7,5.73,2.39,-27.9,30.0
2012-06-28 02:00:00,0.0,1.8770,0.0010,397.20,0.29,16.3,21.3,138.08,31.10,24.65,36.46,1.06,-23.65,-26.27,-60,539,-934,26.0,19.6,1.0,25.9,1.4,-30.6,5.73,2.40,-27.9,30.1
2012-06-28 02:01:00,0.0,1.8765,0.0008,397.30,0.31,14.4,19.7,138.08,31.09,24.65,36.45,1.03,-24.00,-26.28,-60,539,-934,26.0,19.5,0.9,25.9,1.4,-30.7,5.73,2.39,-27.9,30.0
2012-06-28 02:02:00,0.0,1.8767,0.0010,397.29,0.35,11.7,17.5,138.08,31.09,24.64,36.45,0.96,-24.31,-26.29,-60,539,-933,26.0,19.3,0.8,25.9,1.4,-30.7,5.73,2.40,-27.9,30.1
2012-06-28 02:03:00,0.0,1.8768,0.0010,397.21,0.39,17.6,19.6,138.08,31.08,24.65,36.45,1.00,-24.62,-26.30,-60,539,-934,26.0,19.5,0.9,25.9,1.4,-30.7,5.73,2.40,-27.9,30.1
2012-06-28 02:04:00,0.0,1.8768,0.0009,397.19,0.29,15.1,18.9,138.08,31.08,24.65,36.45,1.06,-24.91,-26.31,-60,539,-934,26.0,19.6,1.0,25.9,1.4,-30.7,5.73,2.40,-27.9,30.1
2012-06-28 02:05:00,0.0,1.8771,0.0009,397.14,0.31,13.2,17.0,138.08,31.08,24.65,36.45,1.05,-25.17,-26.32,-60,539,-934,26.0,19.4,0.9,25.9,1.4,-30.7,5.73,2.40,-27.9,30.0
2012-06-28 02:06:00,0.0,1.8773,0.0008,396.96,0.31,12.7,17.0,138.08,31.08,24.64,36.46,0.96,-25.42,-26.33,-60,539,-934,26.0,19.7,1.0,25.9,1.4,-30.6,5.73,2.40,-27.9,30.1
2012-06-28 02:07:00,0.0,1.8767,0.0008,397.06,0.24,21.2,24.2,138.08,31.08,24.65,36.46,0.97,-25.66,-26.34,-60,539,-934,26.0,19.7,1.1,25.9,1.4,-30.7,5.73,2.40,-27.9,30.0
2012-06-28 02:08:00,0.0,1.8765,0.0008,397.09,0.29,13.6,19.0,138.08,31.07,24.65,36.45,1.04,-25.87,-26.35,-60,539,-934,26.0,19.6,1.0,25.9,1.4,-30.8,5.73,2.40,-27.9,30.0
2012-06-28 02:09:00,0.0,1.8766,0.0010,397.14,0.26,15.5,19.6,138.08,31.07,24.64,36.46,1.07,-26.08,-26.36,-60,539,-934,26.0,19.4,0.9,25.9,1.4,-30.9,5.73,2.40,-27.9,30.0
2012-06-28 02:10:00,0.0,1.8769,0.0010,397.16,0.31,15.9,19.4,138.07,31.07,24.65,36.46,0.99,-26.28,-26.37,-60,539,-934,26.0,19.5,0.9,25.9,1.4,-30.9,5.73,2.40,-27.9,30.0
2012-06-28 02:11:00,0.0,1.8775,0.0009,396.84,0.37,14.6,23.7,138.07,31.07,24.65,36.45,1.00,-26.15,-26.37,-60,539,-934,26.0,19.9,1.2,25.9,1.4,-30.9,5.73,2.40,-27.9,29.9
2012-06-28 02:12:00,0.0,1.8773,0.0008,396.96,0.27,13.5,21.1,138.08,31.07,24.64,36.46,0.97,-25.95,-26.38,-60,539,-934,25.9,19.9,1.2,25.9,1.4,-30.9,5.73,2.39,-27.9,29.9
2012-06-28 02:13:00,0.0,1.8761,0.0011,397.30,0.29,13.8,17.0,138.08,31.06,24.65,36.44,0.98,-26.08,-26.39,-60,539,-934,25.9,19.5,0.9,25.9,1.4,-30.9,5.73,2.40,-27.9,30.0
2012-06-28 02:14:00,0.0,1.8764,0.0008,397.00,0.35,16.1,19.4,138.08,31.06,24.65,36.46,1.05,-26.25,-26.40,-60,539,-934,25.9,19.6,0.9,25.9,1.4,-30.9,5.73,2.40,-27.9,29.9
2012-06-28 02:15:00,0.0,1.8764,0.0011,397.07,0.25,14.5,19.1,138.08,31.06,24.65,36.45,0.98,-26.32,-26.41,-60,539,-934,25.9,19.5,0.9,25.9,1.4,-30.9,5.73,2.40,-27.9,30.0
2012-06-28 02:16:00,0.0,1.8761,0.0009,397.26,0.27,16.4,20.1,138.08,31.05,24.65,36.45,1.06,-25.98,-26.41,-60,539,-934,25.9,19.3,0.7,25.9,1.4,-30.9,5.73,2.40,-27.9,30.0
2012-06-28 02:17:00,0.0,1.8764,0.0011,397.04,0.29,16.4,19.1,138.08,31.05,24.64,36.46,1.01,-26.05,-26.43,-60,539,-934,25.9,19.5,0.9,25.9,1.4,-30.9,5.73,2.40,-27.9,30.0
2012-06-28 02:18:00,0.0,1.8763,0.0010,397.06,0.29,17.3,19.9,138.08,31.05,24.64,36.46,0.96,-26.22,-26.43,-60,539,-934,25.9,19.5,0.9,25.8,1.4,-30.9,5.73,2.40,-27.9,30.0
2012-06-28 02:19:00,0.0,1.8758,0.0009,397.19,0.30,19.7,21.7,138.08,31.05,24.65,36.45,0.98,-26.39,-26.44,-60,539,-934,25.9,19.4,0.8,25.9,1.4,-30.9,5.73,2.40,-27.9,30.0
2012-06-28 02:20:00,0.0,1.8758,0.0009,397.08,0.34,15.7,20.4,138.08,31.05,24.65,36.45,1.02,-26.11,-26.44,-60,539,-934,25.9,19.4,0.8,25.8,1.4,-30.9,5.73,2.40,-27.9,30.0